Regional Weather Roundup
Issued by NWS

Home | Current Version | Previous Version | Text Only | Print | Product List | Glossary On
Versions: 1 2 3 4 5 6 7 8 9 10 11 12 13 14 15 16 17 18 19 20 21 22 23 24 25 26 27
000
ASPQ40 PGUM 231912
RWRPQ
WEATHER ROUNDUP FOR THE MARIANAS AND MICRONESIA
NATIONAL WEATHER SERVICE TIYAN GU
500 AM CHST SAT JUN 24 2017

GUZ001>004-232000-
MARIANA ISLANDS-

CITY           SKY/WX    TMP DP  RH WIND       PRES   REMARKS
GUAM AIRPORT   PTCLDY    77  75  94 E5        29.83R
ANDERSEN AFB   MOCLDY    79  75  89 E7        29.84S
ROTA AIRPORT   NOT AVBL
TINIAN AP      NOT AVBL
SAIPAN AP      MOCLDY    82  77  83 E8        29.82S HX  91

$$

PMZ161-232000-
REPUBLIC OF PALAU-

CITY           SKY/WX    TMP DP  RH WIND       PRES   REMARKS
KOROR AP       MOCLDY    73  73 100 N3        29.80S
KOROR WSO      MOCLDY    77  75  94 CALM      29.80F

$$

PMZ171>174-232000-
FEDERATED STATES OF MICRONESIA-

CITY           SKY/WX    TMP DP  RH WIND       PRES   REMARKS
YAP AIRPORT    CLOUDY    79  77  94 VRB3      29.77F
CHUUK AP       PTCLDY    79  75  89 VRB3      29.77R
POHNPEI AP     NOT AVBL
POHNPEI WSO    PTCLDY    75  73  94 S3        29.81R
KOSRAE AP      NOT AVBL

$$

PMZ181-232000-
REPUBLIC OF THE MARSHALL ISLANDS-

CITY           SKY/WX    TMP DP  RH WIND       PRES   REMARKS
KWAJALEIN AP   CLEAR     82  73  74 E16       29.80S
MAJURO AP      NOT AVBL
MAJURO WSO     MOCLDY    82  75  78 E10       29.75S

$$





USA.gov is the U.S. government's official web portal to all federal, state and local government web resources and services.